Location: Helsinki
(60.1699°N, 24.9384°E)
Time: 13:51:11
(UTC+02:00)

Transit 4A - Pass Details

Date: 03 November 2020
Orbit: 862 x 982 km, 66.8° (Epoch: 26 November)

Event Time Altitude Azimuth Distance (km) Brightness Sun altitude
Rises 20:04:48 0° 299° (WNW) 3,689 12.2 -28.1°
Reaches altitude 10° 20:07:25 10° 303° (WNW) 2,745 11.3 -28.4°
Maximum altitude 20:13:48 60° 23° (NNE) 1,125 8.2 -29.2°
Enters shadow 20:13:58 59° 30° (NNE) 1,126 8.2 -29.2°
Drops below altitude 10° 20:20:08 10° 103° (ESE) 2,724 - -29.9°
Sets 20:22:43 0° 107° (ESE) 3,659 - -30.2°
